Location: Bergnershof
(48.9468°N, 10.9431°E)
Time: 04:42:08
(UTC+00:00)

Cosmos 2366 rocket - Pass Details

Date: 03 March 2021
Orbit: 955 x 997 km, 82.9° (Epoch: 11 April)

Event Time Altitude Azimuth Distance (km) Brightness Sun altitude
Rises 18:21:40 0° 161° (SSE) 3,683 6.8 -13.7°
Reaches altitude 10° 18:24:19 10° 154° (SSE) 2,744 6.0 -14.1°
Maximum altitude 18:30:05 39° 88° (E) 1,448 4.4 -15.1°
Drops below altitude 10° 18:35:55 10° 22° (NNE) 2,776 6.2 -16.0°
Sets 18:38:36 0° 15° (NNE) 3,731 7.0 -16.5°
